Location: Moscow
(38.8570°N, 84.2291°W)
Time: 16:42:51
(UTC+00:00)

NOAA 19 - Visible Passes

Search period start: 14 March 2026 00:00
Search period end: 24 March 2026 00:00
Orbit: 838 x 857 km, 99.0° (Epoch: 14 March)

Date Brightness Start Highest point End Pass type
(mag) Time Alt. Az. Time Alt. Az. Time Alt. Az.
14 Mar 7.5 03:14:19 17° N 03:14:19 17° N 03:15:32 10° N visible
15 Mar 7.3 03:01:18 19° N 03:01:18 19° N 03:02:44 10° N visible
16 Mar 7.2 02:48:16 19° N 02:48:16 19° N 02:49:52 10° N visible
17 Mar 7.1 02:35:14 19° NNE 02:35:14 19° NNE 02:36:56 10° N visible
17 Mar 8.1 04:17:10 10° NW 04:17:10 10° NW 04:17:15 10° NW visible
18 Mar 7.1 02:22:12 18° NNE 02:22:12 18° NNE 02:23:56 10° N visible
18 Mar 7.9 04:04:09 13° NW 04:04:09 13° NW 04:04:48 10° NNW visible
19 Mar 7.1 02:09:11 16° NNE 02:09:11 16° NNE 02:10:50 10° NNE visible
19 Mar 7.7 03:51:07 16° NNW 03:51:07 16° NNW 03:52:15 10° NNW visible
20 Mar 7.2 01:56:10 14° NE 01:56:10 14° NE 01:57:36 10° NNE visible
20 Mar 7.5 03:38:05 19° NNW 03:38:05 19° NNW 03:39:37 10° NNW visible
21 Mar 7.3 01:43:08 12° NE 01:43:08 12° NE 01:44:07 10° NNE visible
21 Mar 7.3 03:25:04 22° NNW 03:25:04 22° NNW 03:26:55 10° NNW visible
22 Mar 7.1 03:12:03 24° N 03:12:03 24° N 03:14:10 10° N visible
23 Mar 6.9 02:59:01 25° N 02:59:01 25° N 03:01:21 10° N visible
